User: anonymous
Location: Fort Wayne
(41.1310°N, 85.1290°W)
Time: 10:02:45
(UTC-04:00)
Language:

Cosmos 1980 - Orbit

View from above orbital plane
View from above orbital plane
View from above satellite
View from above satellite

Ground track
Ground track

The orbit data is extracted from the following two-line orbital elements,

1 19649U 88102A   14232.09656759  .00000275  00000-0  16825-3 0  8322
2 19649 071.0005 071.8677 0003581 072.1560 287.9953 14.14545245328616
Epoch (UTC): 20 August 2014 02:19:03
Eccentricity: 0.0003581
inclination: 71.0005°
perigee height: 841 km
apogee height: 846 km
right ascension of ascending node: 71.8677°
argument of perigee: 72.1560°
revolutions per day: 14.14545245
mean anomaly at epoch: 287.9953°
orbit number at epoch: 32861

The dashed part of the orbit path shows where the satellite is in the earth's shadow,  

DLR